TimePST,TemperatureF,Dew PointF,Humidity,Sea Level PressureIn,VisibilityMPH,Wind Direction,Wind SpeedMPH,Gust SpeedMPH,PrecipitationIn,Events,Conditions,WindDirDegrees,DateUTC
12:53 AM,17.1,10.9,77,30.39,10.0,ESE,4.6,-,N/A,,Clear,110,2012-11-13 08:53:00
1:53 AM,19.0,12.0,74,30.38,10.0,Calm,Calm,-,N/A,,Clear,0,2012-11-13 09:53:00
2:53 AM,17.1,10.9,77,30.38,10.0,Calm,Calm,-,N/A,,Clear,0,2012-11-13 10:53:00
3:53 AM,17.1,12.9,84,30.37,10.0,SE,4.6,-,N/A,,Clear,140,2012-11-13 11:53:00
4:53 AM,12.9,7.0,77,30.39,10.0,NW,4.6,-,N/A,,Clear,310,2012-11-13 12:53:00
5:53 AM,16.0,7.0,68,30.40,10.0,East,6.9,-,N/A,,Clear,90,2012-11-13 13:53:00
6:53 AM,12.0,5.0,73,30.43,10.0,Calm,Calm,-,N/A,,Clear,0,2012-11-13 14:53:00
7:53 AM,21.9,12.0,66,30.42,10.0,WNW,3.5,-,N/A,,Clear,300,2012-11-13 15:53:00
8:53 AM,30.9,17.1,57,30.42,10.0,Calm,Calm,-,N/A,,Clear,0,2012-11-13 16:53:00
9:53 AM,39.0,17.1,41,30.40,10.0,Calm,Calm,-,N/A,,Clear,0,2012-11-13 17:53:00
10:53 AM,44.1,18.0,35,30.37,10.0,Variable,3.5,-,N/A,,Clear,0,2012-11-13 18:53:00
11:53 AM,48.9,17.1,28,30.32,10.0,Variable,5.8,-,N/A,,Clear,0,2012-11-13 19:53:00
12:53 PM,50.0,17.1,27,30.30,10.0,Calm,Calm,-,N/A,,Clear,0,2012-11-13 20:53:00
1:53 PM,52.0,17.1,25,30.26,10.0,Calm,Calm,-,N/A,,Clear,0,2012-11-13 21:53:00
2:53 PM,51.1,18.0,27,30.27,10.0,NW,3.5,-,N/A,,Clear,310,2012-11-13 22:53:00
3:53 PM,52.0,18.0,26,30.25,10.0,NNE,3.5,-,N/A,,Clear,20,2012-11-13 23:53:00
4:53 PM,46.9,18.0,32,30.26,10.0,Calm,Calm,-,N/A,,Clear,0,2012-11-14 00:53:00
5:53 PM,43.0,18.0,37,30.26,10.0,Calm,Calm,-,N/A,,Clear,0,2012-11-14 01:53:00
6:53 PM,37.9,21.9,53,30.29,10.0,Calm,Calm,-,N/A,,Clear,0,2012-11-14 02:53:00
7:53 PM,35.1,17.1,48,30.27,10.0,SSW,3.5,-,N/A,,Mostly Cloudy,200,2012-11-14 03:53:00
8:53 PM,34.0,16.0,48,30.26,10.0,Calm,Calm,-,N/A,,Clear,0,2012-11-14 04:53:00
9:53 PM,32.0,18.0,56,30.24,10.0,Calm,Calm,-,N/A,,Clear,0,2012-11-14 05:53:00
10:53 PM,28.9,15.1,56,30.23,10.0,Calm,Calm,-,N/A,,Clear,0,2012-11-14 06:53:00
11:53 PM,27.0,18.0,69,30.24,10.0,West,3.5,-,N/A,,Clear,270,2012-11-14 07:53:00